TimePDT,TemperatureF,Dew PointF,Humidity,Sea Level PressureIn,VisibilityMPH,Wind Direction,Wind SpeedMPH,Gust SpeedMPH,PrecipitationIn,Events,Conditions,WindDirDegrees,DateUTC
12:56 AM,52.0,51.1,97,30.11,7.0,WNW,9.2,-,N/A,,Clear,300,2013-04-07 07:56:00
1:56 AM,54.0,50.0,86,30.10,10.0,WNW,6.9,-,N/A,,Clear,290,2013-04-07 08:56:00
2:56 AM,52.0,48.9,89,30.09,10.0,WNW,8.1,-,N/A,,Clear,300,2013-04-07 09:56:00
3:56 AM,50.0,48.9,96,30.09,9.0,SW,3.5,-,N/A,,Clear,230,2013-04-07 10:56:00
4:56 AM,55.0,48.0,77,30.07,10.0,NW,10.4,17.3,N/A,,Clear,320,2013-04-07 11:56:00
5:56 AM,54.0,46.9,77,30.06,10.0,WNW,8.1,-,N/A,,Clear,290,2013-04-07 12:56:00
6:56 AM,55.0,46.0,72,30.08,10.0,NW,11.5,-,N/A,,Scattered Clouds,320,2013-04-07 13:56:00
7:56 AM,59.0,45.0,60,30.09,10.0,NNW,16.1,-,N/A,,Scattered Clouds,340,2013-04-07 14:56:00
8:56 AM,61.0,46.9,60,30.09,10.0,North,12.7,-,N/A,,Mostly Cloudy,350,2013-04-07 15:56:00
9:56 AM,64.9,46.0,50,30.09,10.0,NNW,12.7,-,N/A,,Clear,330,2013-04-07 16:56:00
10:56 AM,68.0,46.0,45,30.08,10.0,North,12.7,19.6,N/A,,Clear,350,2013-04-07 17:56:00
11:56 AM,70.0,51.1,51,30.06,10.0,NW,13.8,-,N/A,,Clear,310,2013-04-07 18:56:00
12:56 PM,66.9,51.1,57,30.05,10.0,NNW,19.6,26.5,N/A,,Clear,330,2013-04-07 19:56:00
1:56 PM,66.0,52.0,60,30.01,10.0,NNW,23.0,-,N/A,,Scattered Clouds,330,2013-04-07 20:56:00
2:56 PM,64.9,52.0,63,30.01,10.0,NNW,23.0,27.6,N/A,,Clear,330,2013-04-07 21:56:00
3:56 PM,64.9,53.1,65,29.97,10.0,NW,23.0,28.8,N/A,,Clear,320,2013-04-07 22:56:00
4:56 PM,62.1,53.1,72,29.96,10.0,NW,25.3,29.9,N/A,,Scattered Clouds,320,2013-04-07 23:56:00
5:56 PM,60.1,52.0,75,29.96,10.0,NW,23.0,29.9,N/A,,Scattered Clouds,320,2013-04-08 00:56:00
6:56 PM,55.9,51.1,84,29.95,10.0,NW,21.9,-,N/A,,Scattered Clouds,320,2013-04-08 01:56:00
7:14 PM,55.4,51.8,88,29.95,10.0,NNW,18.4,27.6,N/A,,Mostly Cloudy,330,2013-04-08 02:14:00
7:56 PM,55.0,51.1,86,29.95,10.0,NW,18.4,24.2,N/A,,Overcast,320,2013-04-08 02:56:00
8:56 PM,54.0,51.1,90,29.95,9.0,NW,18.4,26.5,N/A,,Overcast,320,2013-04-08 03:56:00
9:19 PM,53.6,50.0,88,29.95,9.0,NW,18.4,24.2,N/A,,Scattered Clouds,320,2013-04-08 04:19:00
9:56 PM,53.1,50.0,89,29.96,9.0,NW,17.3,23.0,N/A,,Clear,320,2013-04-08 04:56:00
10:56 PM,53.1,48.9,86,29.94,10.0,North,10.4,20.7,N/A,,Clear,350,2013-04-08 05:56:00
11:56 PM,51.1,48.9,92,29.92,8.0,NW,8.1,16.1,N/A,,Clear,310,2013-04-08 06:56:00